Location: Morisset
(33.1080°S, 151.4871°E)
Time: 08:21:07
(UTC+00:00)

Cosmos 1356 Rocket - Pass Details

Date: 29 October 2020
Orbit: 542 x 599 km, 81.2° (Epoch: 28 November)

Event Time Altitude Azimuth Distance (km) Brightness Sun altitude
Rises 18:14:31 0° 356° (N) 2,720 6.6 -9.1°
Reaches altitude 10° 18:16:41 10° 357° (N) 1,827 5.7 -8.7°
Maximum altitude 18:20:42 78° 83° (E) 569 3.5 -7.9°
Drops below altitude 10° 18:24:44 10° 169° (S) 1,839 6.5 -7.2°
Sets 18:26:55 0° 170° (S) 2,738 7.3 -6.7°
